Lapse_Rate
-0.5 0.2 -0.7 -0.3 -0.0 -0.7 -0.3 0.4 1.4 1.3 1.2 -0.6 0.1 -0.0 0.9 1.7 2.6 3.3 2.9 3.0 4.8 5.6 5.5 5.4 5.6 6.2 8.5 9.3 9.3 9.4 9.4 9.4 9.5 9.5 9.3 9.2 9.5 9.1
0.2 0.5 1.5 -0.1 0.8 -0.1 0.9 1.4 1.1 1.7 2.5 0.1 0.6 1.4 1.8 1.9 2.6 3.8 3.7 4.6 4.5 5.2 5.7 5.8 6.3 7.9 9.3 9.3 9.4 9.5 9.4 9.4 9.4 9.2 9.4 9.3 9.0 9.1
0.6 1.4 1.6 0.7 0.3 0.9 1.5 1.2 2.1 2.1 3.2 2.7 0.3 0.4 0.7 1.1 2.3 3.5 3.2 3.2 2.9 4.2 5.0 5.5 6.1 8.7 9.3 9.3 9.3 9.4 9.4 9.4 9.2 9.1 9.4 9.0 9.3 9.0
0.4 1.1 0.8 0.6 0.4 1.6 3.0 2.6 2.0 3.1 3.8 3.2 1.1 1.0 1.4 2.1 2.5 1.6 3.5 4.7 4.9 4.6 5.0 5.2 7.5 8.9 9.1 9.2 9.3 9.2 9.1 9.0 9.1 9.1 9.0 9.2 9.2 9.1
1.7 1.7 1.5 1.8 1.3 0.3 0.7 1.7 2.1 5.3 2.8 1.9 2.9 2.2 2.2 2.1 2.5 2.7 3.0 3.8 3.8 5.0 5.4 5.8 6.6 7.0 7.1 8.9 9.2 9.2 9.3 9.3 9.3 9.4 9.4 9.4 9.5 9.5
1.4 1.9 1.2 1.2 1.6 1.9 1.6 2.7 4.0 3.2 3.1 3.4 3.6 3.5 2.9 3.7 3.0 4.1 4.8 4.3 5.5 5.6 4.9 5.6 6.7 6.8 6.9 7.3 7.3 7.1 7.0 7.1 8.5 9.2 9.1 9.3 9.3 9.3
1.3 0.8 0.9 1.4 1.2 3.1 3.0 3.8 4.6 4.9 4.1 2.8 3.2 2.7 3.5 4.1 5.3 6.3 5.9 5.9 5.6 4.7 3.7 3.7 3.6 3.6 3.4 4.5 5.2 5.4 5.5 6.0 7.4 9.2 9.1 9.1 9.0 9.0
1.3 1.0 0.9 3.4 2.4 4.2 5.7 6.8 6.8 4.5 4.2 3.1 3.1 5.0 5.1 5.2 4.9 5.5 6.1 5.9 6.7 5.1 3.9 4.7 5.1 4.6 4.2 4.3 4.6 5.3 6.2 7.0 7.9 9.1 9.0 9.0 8.8 8.8
0.6 3.1 3.0 4.2 2.1 2.7 4.5 5.9 5.8 7.2 8.2 6.8 5.9 5.5 6.1 6.1 6.1 5.8 5.7 6.1 6.3 6.5 5.4 4.9 5.5 4.1 4.2 4.5 5.3 5.9 6.3 6.3 6.9 8.7 9.1 9.1 9.1 9.1
3.7 2.7 1.9 2.0 2.4 4.2 4.2 3.7 5.1 4.6 5.1 5.8 5.5 5.9 5.6 5.9 6.0 6.5 7.1 6.6 6.4 5.8 4.9 5.4 4.9 4.5 5.2 4.3 4.9 5.4 5.8 6.6 7.0 7.5 9.1 9.1 9.2 9.2
2.4 2.4 2.8 3.0 5.0 6.8 5.8 4.7 6.3 5.9 6.9 7.9 8.0 7.9 8.1 8.1 8.2 6.9 4.6 5.3 5.0 5.1 4.8 5.5 3.3 4.3 4.9 4.4 4.5 5.2 6.1 7.1 7.5 7.8 7.8 8.2 8.9 9.2
2.6 3.6 5.4 5.5 6.9 8.9 7.6 6.5 5.5 4.9 5.0 4.1 4.0 4.3 5.0 4.1 5.9 4.9 3.2 3.7 4.5 5.8 4.4 4.6 3.2 5.5 5.9 4.1 2.9 3.4 4.0 4.3 5.1 5.5 6.0 6.6 7.0 8.7
3.9 3.7 4.2 6.9 8.9 8.9 9.1 5.7 6.2 7.6 6.6 4.2 3.7 3.4 3.2 3.0 3.3 3.4 3.6 2.4 4.4 4.5 4.2 6.8 5.5 5.3 6.8 5.8 3.5 2.9 2.9 3.1 2.9 3.0 4.0 4.7 5.6 6.7
4.7 4.2 4.3 8.2 8.8 8.5 7.3 7.6 9.2 7.6 4.0 3.7 3.4 2.9 2.7 2.6 2.3 2.5 2.8 2.9 3.3 3.5 3.2 4.0 4.5 3.5 4.7 5.1 4.6 3.3 3.0 2.9 2.6 2.3 2.4 3.2 4.6 5.9
5.6 6.7 7.5 7.5 6.7 5.0 5.9 6.5 6.0 3.4 3.7 3.1 2.7 2.5 2.2 2.0 1.5 1.4 1.5 1.9 1.2 1.4 2.2 2.6 3.1 3.4 4.0 4.3 4.5 3.9 3.8 2.8 2.7 2.4 2.8 3.0 3.1 3.4
5.0 3.3 5.8 5.5 5.1 4.9 4.1 3.9 3.6 3.7 3.8 3.4 2.4 2.2 2.0 -0.3 1.3 1.6 1.2 1.4 1.1 0.6 1.7 2.1 2.3 2.9 3.4 3.4 3.9 3.2 2.3 4.5 2.8 3.1 3.7 3.7 3.8 4.0
4.5 3.4 2.7 2.4 2.0 2.3 2.6 2.9 2.9 2.9 2.4 2.1 1.4 1.5 1.7 1.7 1.5 1.4 1.1 1.1 1.9 2.0 1.3 1.5 2.5 2.9 3.0 3.4 3.6 2.8 3.2 3.2 3.3 3.4 4.4 4.5 3.8 4.1
3.2 2.2 1.7 1.6 1.8 2.1 2.2 1.9 1.8 2.0 1.6 1.2 0.9 0.8 0.9 1.0 0.9 1.4 2.6 1.9 1.7 1.8 1.9 2.1 2.4 2.9 3.7 4.7 5.6 4.1 4.0 4.5 4.1 5.2 6.1 6.6 6.6 5.7
2.1 1.0 1.3 1.6 1.8 1.8 1.4 1.0 0.7 1.0 0.0 -0.1 -0.1 -0.1 0.9 0.8 2.6 1.6 1.4 2.0 2.5 2.9 3.0 3.0 3.5 4.9 5.9 6.5 6.4 8.7 6.4 6.0 6.0 5.6 5.8 5.9 6.1 4.9
1.4 1.2 1.3 1.7 1.6 1.3 1.0 0.6 0.4 0.3 0.0 -0.2 -0.4 0.1 1.3 2.1 2.3 2.4 2.8 2.9 3.0 3.7 4.6 4.7 4.1 4.9 6.1 6.5 6.8 4.9 6.4 5.9 5.8 6.1 6.3 6.1 6.0 6.2
1.4 1.4 1.7 1.6 1.3 1.1 0.9 0.4 -0.0 -0.2 0.8 1.4 0.1 -0.5 0.4 2.0 2.2 2.7 2.8 4.5 5.5 5.1 4.9 4.9 5.1 6.8 6.2 5.9 6.4 6.5 5.2 6.5 6.3 5.8 5.5 6.0 5.4 5.0
1.5 1.4 1.5 1.4 1.3 0.8 0.2 -0.1 -0.8 -0.7 -0.6 -0.6 -0.6 -0.2 0.6 1.3 2.8 2.7 3.1 3.7 4.2 4.4 4.6 4.7 5.2 6.3 6.6 6.1 6.5 6.4 5.4 4.7 5.1 5.8 6.3 6.5 6.1 6.5
1.1 1.1 1.0 0.6 0.8 0.6 0.4 -0.1 -0.2 -0.0 -0.1 0.3 0.2 0.2 1.0 1.9 3.1 3.5 3.7 4.4 4.4 4.4 5.5 6.5 6.5 6.9 7.3 6.9 6.8 6.3 4.9 4.6 4.7 4.8 4.5 6.1 6.7 7.1
Wind_Speed
6 5 5 2 1 4 3 2 4 3 3 2 1 4 9 6 8 10 10 12 18 22 24 24 25 25 25 26 27 27 27 28 28 27 27 28 30 29
5 8 4 4 2 4 3 2 2 2 3 3 3 3 5 8 11 13 15 16 18 22 24 24 26 25 26 27 27 27 28 28 27 30 31 30 30 31
6 7 5 4 4 3 3 2 1 1 3 2 3 1 2 4 11 17 15 16 17 21 25 26 26 26 26 27 27 28 28 28 29 30 31 31 32 30
7 8 5 4 4 4 1 0 1 2 4 5 2 2 4 4 8 6 12 13 16 20 26 27 27 25 26 26 26 27 28 28 29 30 30 31 31 31
6 6 6 5 4 2 2 3 5 5 3 3 3 3 4 3 3 5 5 10 15 21 26 25 24 24 24 25 25 27 28 30 31 31 31 31 31 32
8 5 6 3 2 1 4 6 5 3 3 3 3 3 3 4 2 5 6 4 7 15 23 23 21 21 23 26 29 30 31 30 30 31 31 32 33 34
5 5 4 2 6 8 5 4 3 3 3 3 2 2 2 2 4 5 7 8 7 6 9 7 9 11 17 24 26 30 28 27 28 29 30 31 32 32
5 2 1 6 2 1 5 8 5 3 3 2 2 3 4 4 3 5 7 8 8 4 3 10 9 9 13 17 26 29 29 30 31 31 31 31 31 31
3 3 3 1 3 3 6 8 8 12 11 4 3 4 6 5 7 8 9 8 8 8 6 14 6 11 13 19 27 29 31 32 31 30 29 28 29 29
3 3 2 1 3 5 5 4 6 5 5 4 5 7 7 8 6 5 8 9 8 7 7 10 8 10 9 16 27 31 30 29 27 27 28 28 28 29
2 2 0 2 8 10 5 3 4 4 10 16 17 16 18 22 21 7 6 7 9 8 6 7 6 6 9 11 17 25 26 26 27 29 31 31 31 31
1 1 5 6 9 10 4 1 3 4 6 5 4 10 14 13 16 7 3 6 7 6 2 2 3 6 5 3 2 7 16 25 29 30 30 30 30 11
1 2 3 9 11 11 12 2 5 8 4 4 4 5 6 5 5 7 7 4 7 8 11 9 5 8 7 9 5 6 8 12 11 17 26 28 28 22
2 2 4 10 10 12 10 13 13 9 3 4 4 5 6 6 6 6 13 13 14 13 21 12 6 7 10 12 12 9 9 9 9 12 10 19 26 27
2 4 8 10 11 8 11 12 9 3 3 4 5 6 4 6 7 8 12 13 14 18 20 19 10 11 9 11 12 13 13 8 9 11 10 10 10 8
3 3 6 7 8 7 6 5 3 3 4 4 5 6 6 4 7 5 7 8 8 10 11 17 12 11 11 11 11 14 13 8 8 10 9 10 10 10
3 2 2 2 3 4 4 4 3 4 4 4 5 6 7 6 7 7 7 8 7 9 11 9 9 11 11 14 12 13 12 12 11 12 10 11 12 11
3 2 2 2 3 4 4 5 4 7 4 5 6 6 6 7 8 8 7 7 9 10 10 10 9 9 8 9 21 13 12 11 12 12 11 11 12 11
2 2 2 3 4 4 4 4 5 5 4 5 5 6 6 7 11 9 8 8 9 9 10 9 9 9 11 13 10 16 11 11 12 13 11 11 13 14
1 2 3 4 4 4 5 5 5 5 5 6 6 6 6 7 8 9 8 9 10 11 11 10 9 9 9 13 14 17 15 9 9 12 12 11 14 27
3 3 3 4 4 5 5 5 5 6 7 6 6 6 7 6 9 9 10 18 18 10 12 11 11 24 12 11 9 14 13 14 14 12 12 10 12 12
3 4 4 4 5 5 5 5 6 6 6 6 6 6 7 7 9 10 10 11 11 11 12 12 12 10 10 9 12 16 13 13 15 20 21 20 10 6
4 4 4 4 5 5 5 6 6 7 7 7 6 7 7 8 9 10 11 11 11 11 11 12 11 10 10 10 14 11 19 17 13 12 11 17 20 22
Wind_Direction
123 113 113 84 306 97 92 176 135 191 259 236 186 210 217 259 307 306 295 294 307 308 304 300 298 295 293 292 289 286 286 286 283 284 281 278 274 274
113 107 76 106 61 75 75 42 52 135 229 214 233 224 239 289 296 300 291 298 302 306 303 298 296 293 290 288 286 285 288 284 282 278 282 284 277 275
101 102 93 73 91 59 49 82 75 183 235 255 218 257 290 291 288 293 291 291 289 297 302 299 298 293 289 289 288 288 284 284 283 283 279 278 277 278
107 116 124 112 108 122 211 210 205 213 232 252 247 252 231 259 263 276 283 283 284 290 299 297 297 295 292 288 287 285 285 283 279 279 281 281 279 277
122 115 107 104 98 105 206 243 242 233 205 211 270 238 254 263 280 271 257 267 272 281 292 294 294 294 291 289 289 290 289 287 285 282 281 280 278 275
104 105 105 120 158 240 254 243 245 247 240 235 240 251 235 260 243 276 284 257 283 283 284 288 288 289 292 292 291 288 285 283 281 279 278 275 273 271
93 84 86 189 226 230 231 239 242 242 247 237 248 234 255 261 271 293 289 289 282 265 275 276 263 265 272 283 283 284 285 283 279 275 273 272 271 271
87 107 207 239 144 248 288 291 271 218 227 211 234 275 277 269 251 273 283 297 309 235 282 289 283 282 276 275 277 286 285 283 282 280 278 277 278 274
158 153 138 71 40 342 301 305 304 293 294 276 277 261 283 273 272 284 282 277 276 285 281 288 285 276 277 273 280 284 284 285 285 283 282 279 277 274
171 119 106 348 308 293 272 265 267 287 291 278 261 272 255 261 256 258 279 286 286 281 268 283 288 278 283 276 279 285 284 285 283 281 282 281 279 277
105 90 36 313 293 303 294 263 296 288 297 299 304 306 305 303 302 306 292 300 297 293 274 275 283 284 287 279 274 274 280 285 286 285 285 284 282 279
31 341 313 312 312 303 311 170 295 274 282 301 310 302 296 289 301 290 272 278 292 297 270 215 294 311 300 228 247 278 280 280 285 285 283 282 282 279
279 303 300 317 317 329 326 17 297 297 342 310 290 292 294 291 289 285 272 239 278 267 273 293 285 284 273 292 274 269 272 279 275 277 281 282 281 276
299 301 292 311 341 331 329 312 313 341 329 306 299 295 297 299 294 289 285 275 258 260 279 275 269 267 273 281 284 287 279 275 270 274 275 274 276 273
326 334 1 348 336 336 323 332 341 322 295 296 296 291 281 283 288 290 285 274 264 264 268 264 253 267 263 268 275 283 285 286 279 275 273 266 262 260
55 13 350 347 344 339 341 327 310 308 304 303 295 295 295 289 294 287 292 301 295 293 265 253 249 250 264 263 268 276 278 274 282 275 270 270 265 256
89 26 352 339 340 335 330 318 314 315 308 303 297 298 299 299 296 299 285 289 273 294 301 298 266 251 251 258 271 270 273 276 270 273 273 271 270 259
35 355 337 332 325 321 318 317 313 312 300 304 299 292 294 299 299 296 291 288 288 293 292 294 299 302 288 255 235 264 272 269 277 276 270 269 273 265
17 334 307 311 305 301 298 295 299 301 290 284 285 286 288 287 302 299 298 292 294 291 288 286 286 290 296 292 291 265 270 276 283 285 278 271 271 275
331 298 307 299 299 297 295 294 295 296 293 285 278 277 283 284 291 291 293 291 291 291 296 299 289 284 283 291 299 301 279 271 273 277 279 277 271 272
310 309 288 288 290 286 286 286 277 285 287 292 292 279 281 284 286 287 289 298 301 298 297 296 292 294 290 290 290 296 302 279 265 272 282 282 284 291
294 287 287 284 285 283 284 283 284 284 285 281 278 277 280 280 283 288 291 295 297 292 288 289 294 299 295 287 291 297 299 305 296 285 276 266 272 271
284 280 285 282 281 281 280 281 280 285 282 280 278 281 284 285 285 281 284 287 287 287 289 299 299 299 296 296 294 298 298 302 309 312 300 285 277 267